Other Public Products
Issued by NWS Grand Forks, ND

Home | Current Version | Previous Version | Text Only | Print | Product List | Glossary Off
Versions: 1 2 3 4 5 6 7 8 9 10 11 12 13 14 15 16 17 18 19 20 21 22 23 24 25 26 27 28 29 30 31 32 33 34 35 36 37 38 39 40 41 42 43 44 45 46 47 48 49 50

000
FPUS83 KFGF 191731
OPUFGF
PRAIRIE TO PINES WEATHER ROUNDUP
NATIONAL WEATHER SERVICE EASTERN NORTH DAKOTA/GRAND FORKS ND
1200 PM CDT TUE SEP 19 2017

 **SATELLITE DATA USED TO AUGMENT SKY COVER AT AUTOMATED STATIONS**
 *****  WEATHER ACROSS EASTERN NORTH DAKOTA  *****

CITY           SKY/WX    TMP DP  RH WIND       PRES   REMARKS
GRAND FORKS    CLOUDY    68  63  84 SE18G29   29.64F
GRAND FORKS AF CLOUDY    63  63 100 SE15G23   29.65F
GRAND CITY NWS NOT AVBL
BUXTON           N/A     66  66  99 SE12        N/A
DEVILS LAKE    CLOUDY    62  61  96 SE22G28   29.57F
FARGO          PTSUNNY   72  63  73 SE17G28   29.67F
WAHPETON ARPT  CLOUDY    72  61  68 S24G35    29.68F
$$

 *****  WEATHER ACROSS CENTRAL AND WESTERN NORTH DAKOTA  *****

CITY           SKY/WX    TMP DP  RH WIND       PRES   REMARKS
JAMESTOWN      NOT AVBL
BISMARCK       FAIR      66  51  58 SE17      29.47F
MINOT          PTSUNNY   68  60  75 SE18G31   29.44F
MINOT AFB      PTSUNNY   66  61  82 S15G22    29.43S
GARRISON         N/A     66  61  84 S18       29.46S
WILLISTON      CLOUDY    57  53  86 W8        29.46R
DICKINSON      LGT RAIN  58  50  75 NW18G25   29.47S
HETTINGER      CLOUDY    63  46  54 W9        29.53R
$$

 *****  OTHER OBSERVATIONS NORTHEAST NORTH DAKOTA  *****

CITY           SKY/WX    TMP DP  RH WIND       PRES   REMARKS
WALHALLA       FAIR     N/A N/A N/A SE17G24   29.64F FOG
LANGDON        CLOUDY    61  61 100 SE25      29.61F FOG
CAVALIER       CLOUDY    61  61 100 SE8G20    29.65F FOG
GRAFTON        CLOUDY    63  63 100 SE21      29.68F
CANDO          CLOUDY    63  63 100 SE18G29   29.58R
FORT TOTTEN      N/A     64  63  95 SE14      29.95S
ROLLA          CLOUDY    61  61 100 SE23G32   29.57S FOG
RUGBY          CLOUDY    64  64 100 SE17G24   29.50F
 ***** THE ABOVE OBSERVATIONS ARE NON NWS ARE NOT QUALITY
        CONTROLLED AND MAY MIS-REPORT RAIN FOR SNOW...
$$

 *****  OTHER OBSERVATIONS SOUTHEAST NORTH DAKOTA *****

CITY           SKY/WX    TMP DP  RH WIND       PRES   REMARKS
COOPERSTOWN    CLOUDY    64  64 100 SE18G25   29.61F FOG
VALLEY CITY    CLOUDY    66  66 100 SE18G28   29.62F
OAKES          NOT AVBL
GWINNER          N/A     72  64  78 SE17G23   29.63F
SHEYENNE NWR     N/A     68  66  94 S18       29.95S
BUFFALO          N/A     64  62  93 NW15        N/A
WYNDMERE       NOT AVBL
 ***** THE ABOVE OBSERVATIONS ARE NON NWS ARE NOT QUALITY
       CONTROLLED AND MAY MIS-REPORT RAIN FOR SNOW...
$$

  *****  WEATHER ACROSS NORTHERN MINNESOTA  *****

CITY           SKY/WX    TMP DP  RH WIND       PRES   REMARKS
FLAG ISLAND    CLOUDY    57  54  88 SE7       29.81F
WARROAD        CLOUDY    61  55  82 SE12      29.80F
ROSEAU         FAIR      63  57  82 SE12G17   29.77F
HALLOCK        CLOUDY    63  61  94 SE10      29.69F
THF RVR FALLS  FAIR      69  59  70 SE22      29.73F
HALSTAD          N/A     71  63  75 SE21        N/A
FOSSTON        FAIR      68  57  68 SE15      29.73F
BAUDETTE       CLOUDY    60  57  89 SE13      29.82F
WASKISH        PTSUNNY   66  61  82 SE14G20   29.80F
CROOKSTON      FAIR      70  61  73 SE17      29.68F
$$
  *****  WEATHER ACROSS CENTRAL AND WEST MINNESOTA  *****

CITY           SKY/WX    TMP DP  RH WIND       PRES   REMARKS
BEMIDJI        CLOUDY    62  59  90 SE17      29.80F
PARK RAPIDS    FAIR      68  60  75 SE17G26   29.79F
WADENA         FAIR      66  61  82 SE20      29.77F
DETROIT LAKES  FAIR      68  59  73 SE18G24   29.74F
MOORHEAD       FAIR      73  61  64 SE23G31   29.68F
FERGUS FALLS   FAIR      72  64  78 SE21      29.71F
ELBOW LAKE     FAIR      70  63  78 SE18G29   29.73F HAZE
MORRIS MN      FAIR      70  64  83 SE21G32   29.72F
STAPLES        CLOUDY    64  61  88 SE9G16    29.81F
WHEATON        CLOUDY    72  63  73 SE21G26   29.71S
$$
  *****  WEATHER ELSEWHERE ACROSS MINNESOTA  *****

CITY           SKY/WX    TMP DP  RH WIND       PRES   REMARKS
DULUTH         CLOUDY    63  59  87 E13       29.93F
INTRNTL FALLS  CLOUDY    62  57  83 SE14      29.88F
ELY            CLOUDY    63  55  77 SE8       29.95S
CLOQUET        CLOUDY    64  57  77 E8        29.92F
BRAINERD       CLOUDY    65  61  87 SE8       29.85F
HIBBING        CLOUDY    62  58  86 SE9       29.91F
ALEXANDRIA     PTSUNNY   68  62  81 SE22G29   29.79F
SAINT CLOUD    CLOUDY    70  64  81 SE9       29.85F
MINNEAPOLIS    PTSUNNY   72  64  76 SE12      29.88F
$$

  *****  WEATHER ACROSS SOUTH DAKOTA  *****

CITY           SKY/WX    TMP DP  RH WIND       PRES   REMARKS
SIOUX FALLS    CLOUDY    70  67  90 SE20G25   29.72F FOG
BROOKINGS      CLOUDY    66  65  96 S18G24    29.73F
WATERTOWN      CLOUDY    68  65  90 SE21G32   29.68F
HURON          CLOUDY    71  65  81 SE21G30   29.60F
SISSETON         N/A     69  65  86 SE21G31   29.67F
ABERDEEN       PTSUNNY   76  64  66 SE26G33   29.59F
MITCHELL       CLOUDY    75  66  73 SE23G33   29.62F
PIERRE         FAIR      70  62  76 SE18      29.50F
MOBRIDGE       LGT RAIN  69  65  86 SE15G29   29.47F
RAPID CITY     SUNNY     66  45  45 N17G24    29.56F
$$

  *****  SOME WEATHER IN NEARBY STATES *****

CITY           SKY/WX    TMP DP  RH WIND       PRES   REMARKS
GLASGOW MT     CLOUDY    56  38  50 W16       29.53S
GREAT FALLS MT FAIR      51  31  46 SW17G26   29.64S
CHEYENNE WY    FAIR      73  16  11 SW14      29.73F
SCOTTSBLUFF NE FAIR      61  52  72 SE7       29.61F
OMAHA NE       FAIR      80  68  66 SE20      29.77F
DES MOINES IA  PTSUNNY   76  67  73 SE13      29.87F
DAVENPORT IA   FAIR      73  64  73 E7        29.97F
CHICAGO IL     PTSUNNY   75  65  70 VRB5      29.95F
EAU CLAIRE WI  FAIR      71  60  68 SE7       29.93F
LA CROSSE WI   FAIR      75  62  64 E8        29.93F
$$

  *****  SOME NATIONAL WEATHER *****

CITY           SKY/WX    TMP DP  RH WIND       PRES   REMARKS
LA GUARDIA NY  PTSUNNY   76  65  68 NE17G28   29.97F
RALEIGH NC     FAIR      81  65  58 VRB6      29.99F
ATLANTA GA     FAIR      85  63  47 VRB3      30.04F
NEW ORLEANS LA PTSUNNY   89  72  56 VRB3      30.01F HX  96
OKLAHOMA CITY  FAIR      88  70  55 S21G29    29.84F HX  93
ALBUQUERQUE NM FAIR      73  32  22 S8        30.08F
SALT LAKE CITY PTSUNNY   52  43  71 SW3       29.93R
LOS ANGELES CA CLOUDY    70  61  73 W7        29.95R
BOISE ID       LGT RAIN  49  40  71 W7        29.92R
SEATTLE WA     PTSUNNY   55  49  80 S14       29.75R
$$

*** WEATHER ACROSS MANITOBA...SASKATCHEWAN AND ONTARIO ***
                ***ONTARIO***

CITY           SKY/WX    TMP DP  RH WIND       PRES   REMARKS
GERALDTON      PTSUNNY   64  52  63 SW9       30.07F
THUNDER BAY    PTSUNNY   63  52  67 E12       30.02S
SIOUX LOOKOUT  CLOUDY    61  54  77 S10       29.94S
TORONTO        PTSUNNY   79  68  69 SE7       30.02F
BIG TROUT LK   SUNNY     50  39  66 S3        30.05F
PICKLE LAKE    PTSUNNY   57  50  77 E5        30.00S
DRYDEN         CLOUDY    59  54  82 SE15G21   29.91F
KENORA         CLOUDY    57  54  88 SE13      29.86F
$$
                *** MANITOBA***

CITY           SKY/WX    TMP DP  RH WIND       PRES   REMARKS
BRANDON        LGT RAIN  57  55  94 E15G23    29.57F
DAUPHIN        LGT RAIN  57  57 100 SE16G25   29.62S
ISLAND LAKE    NOT AVBL
PILOT MOUND      N/A     59  57  94 E24G31      N/A
THE PAS        PTSUNNY   59  48  67 E17G26    29.72F
THOMPSON       MOSUNNY   55  39  54 E6        29.91F
WINNIPEG       CLOUDY    61  55  82 SE18G25   29.71F
LYNN LAKE      SUNNY     57  37  47 SE13      29.88F
CHURCHILL      CLOUDY    46  39  76 E5        30.02R
GILLAM         MOSUNNY   54  39  58 S3        29.99F
$$
                ***SASKATCHEWAN***

CITY           SKY/WX    TMP DP  RH WIND       PRES   REMARKS
ESTEVAN        LGT RAIN  57  57 100 SE13G21   29.42R
KINDERSLEY     CLOUDY    46  43  87 W9G17     29.48S
LLOYDMINSTER   CLOUDY    46  43  87 SW13      29.43R
PRINCE ALBERT  LGT RAIN  52  50  93 E16G22    29.52F
REGINA         LGT RAIN  52  50  93 SE7       29.40F FOG
YORKTON        LGT RAIN  54  52  94 E21G28    29.47F



USA.gov is the U.S. government's official web portal to all federal, state and local government web resources and services.